Weather History for PAHN - March, 2013

Change the Weather History Date:

Sunday, March 17, 2013

  Actual Average Record
Temperature  
Mean Temperature 23 °F -  
Max Temperature 28 °F 35 °F 51 °F (1990)
Min Temperature 18 °F 24 °F 1 °F (2006)
Degree Days  
Heating Degree Days 42    
Moisture  
Dew Point 8 °F    
Average Humidity 56    
Maximum Humidity 88    
Minimum Humidity 39    
Precipitation  
Precipitation 0.00 in - - ()
Sea Level Pressure  
Sea Level Pressure 30.12 in    
Wind  
Wind Speed 7 mph (NW)    
Max Wind Speed 14 mph    
Max Gust Speed 17 mph    
Visibility 10 miles    
Events Snow    
Averages and records for this station are not official NWS values.
T = Trace of Precipitation, MM = Missing Value Source: NWS Daily Summary

Daily Weather History Graph

Daily Weather History Graph

Search for Another Location

Airport or City:

Trip Planner

Search our weather history database for the weather conditions in past years. The results will help you decide how hot, cold, wet, or windy it might be!

Date:

Astronomy

Mar. 17, 2013 Rise Set
Actual Time 7:11 AM AKDT 7:10 PM AKDT
Civil Twilight 6:30 AM AKDT 7:51 PM AKDT
Nautical Twilight 5:42 AM AKDT 8:39 PM AKDT
Astronomical Twilight 4:51 AM AKDT 9:31 PM AKDT
Moon 9:08 AM AKDT (3/17) 1:44 AM AKDT (3/17)
Length of Visible Light 13h 20m
Length of Day
11h 59m
Waxing Crescent, 33% of the Moon is Illuminated
Mar 17
Waxing Crescent
Mar 19
First Quarter
Mar 27
Full
Apr 2
Last Quarter
Apr 10
New

Hourly Weather History & Observations

Time (AKDT) Temp. Windchill Dew Point Humidity Pressure Visibility Wind Dir Wind Speed Gust Speed Precip Events Conditions
12:12 AM 23.0 °F 18.4 °F 17.6 °F 80% 30.09 in 4.0 mi NNW 3.5 mph - 0.00 in Snow Light Snow
12:54 AM 21.9 °F 15.7 °F 18.0 °F 85% 30.10 in 7.0 mi West 4.6 mph - 0.00 in Snow Light Snow
1:54 AM 21.0 °F - 18.0 °F 88% 30.11 in 10.0 mi Calm Calm - 0.00 in   Overcast
2:54 AM 21.0 °F 16.2 °F 16.0 °F 81% 30.12 in 10.0 mi North 3.5 mph - N/A   Scattered Clouds
3:54 AM 21.0 °F 12.4 °F 10.9 °F 65% 30.13 in 10.0 mi NNW 6.9 mph - N/A   Partly Cloudy
4:54 AM 19.9 °F 13.4 °F 9.0 °F 62% 30.13 in 10.0 mi NNW 4.6 mph - N/A   Clear
5:54 AM 19.9 °F 10.1 °F 8.1 °F 60% 30.14 in 10.0 mi NNW 8.1 mph - N/A   Partly Cloudy
6:54 AM 19.9 °F 12.1 °F 8.1 °F 60% 30.14 in 10.0 mi NNW 5.8 mph - N/A   Clear
7:54 AM 19.9 °F 10.1 °F 6.1 °F 55% 30.15 in 10.0 mi NNW 8.1 mph - N/A   Partly Cloudy
8:54 AM 19.9 °F 8.6 °F 6.1 °F 55% 30.15 in 10.0 mi NW 10.4 mph - N/A   Clear
9:54 AM 21.0 °F 9.9 °F 7.0 °F 55% 30.15 in 10.0 mi NW 10.4 mph - N/A   Scattered Clouds
10:54 AM 21.9 °F 12.5 °F 8.1 °F 55% 30.16 in 10.0 mi NW 8.1 mph - N/A   Clear
11:54 AM 24.1 °F 13.1 °F 5.0 °F 44% 30.16 in 10.0 mi NW 11.5 mph - N/A   Scattered Clouds
12:54 PM 25.0 °F 13.1 °F 7.0 °F 46% 30.16 in 10.0 mi WNW 13.8 mph - N/A   Mostly Cloudy
1:54 PM 26.1 °F 15.0 °F 7.0 °F 44% 30.15 in 10.0 mi WNW 12.7 mph - N/A   Partly Cloudy
2:54 PM 27.0 °F 16.7 °F 9.0 °F 47% 30.14 in 10.0 mi WNW 11.5 mph - N/A   Mostly Cloudy
3:54 PM 27.0 °F 16.7 °F 7.0 °F 43% 30.12 in 10.0 mi WNW 11.5 mph - N/A   Mostly Cloudy
4:54 PM 27.0 °F 16.1 °F 8.1 °F 45% 30.11 in 10.0 mi West 12.7 mph - N/A   Overcast
5:54 PM 27.0 °F 18.7 °F 5.0 °F 39% 30.10 in 10.0 mi NW 8.1 mph - N/A   Partly Cloudy
6:54 PM 25.0 °F 19.3 °F 5.0 °F 43% 30.09 in 10.0 mi NW 4.6 mph - N/A   Clear
7:54 PM 21.9 °F 17.2 °F 7.0 °F 53% 30.10 in 10.0 mi NW 3.5 mph - N/A   Clear
8:54 PM 23.0 °F 12.4 °F 3.9 °F 44% 30.09 in 10.0 mi NW 10.4 mph 17.3 mph N/A   Clear
9:54 PM 21.0 °F 9.3 °F 3.9 °F 48% 30.09 in 10.0 mi NW 11.5 mph 17.3 mph N/A   Clear
10:54 PM 19.9 °F 7.9 °F 3.9 °F 50% 30.09 in 10.0 mi NW 11.5 mph - N/A   Clear
11:54 PM 18.0 °F 6.1 °F 3.0 °F 52% 30.09 in 10.0 mi NW 10.4 mph - N/A   Clear